Volver al catálogo

OPS 9432

DSCS 2-2

ActivoMilitarGEO
NORAD 5588·PAYLOAD·🇺🇸 United States

Lanzado Nov 3, 1971 desde Cape Canaveral Space Force Station

Loading…

TLE

ActualizadoSource: Space-Track

Época: Sep 14, 2026, 14:17 UTC

1 05588U 71095B   26257.59546777 -.00000312  00000-0  00000-0 0  9997
2 05588   1.3318 251.7641 0002688  46.5790  12.3924  1.00161951 48260

Sigue OPS 9432 en tiempo real con AllMySat

Download on the App Store